Location: Ellerstadt
(49.4644°N, 8.2615°E)
Time: 11:43:50
(UTC+00:00)

ERS-2 - Pass Details

Date: 03 March 2021
Orbit: 492 x 496 km, 98.6° (Epoch: 13 April)

Event Time Altitude Azimuth Distance (km) Brightness Sun altitude
Rises 18:21:54 0° 15° (NNE) 2,595 5.6 -12.0°
Reaches altitude 10° 18:23:59 10° 17° (NNE) 1,708 4.7 -12.3°
Maximum altitude 18:27:39 79° 103° (ESE) 513 2.0 -12.9°
Drops below altitude 10° 18:31:18 10° 192° (SSW) 1,694 4.9 -13.5°
Sets 18:33:22 0° 193° (SSW) 2,572 5.8 -13.8°
